Kermanshah, Iran

11:01 PM +0330 on November 24, 2017 (GMT +0330)
Shahid Ashrafi Esfahani

Weather History for OICC - September, 2013

Change the Weather History Date:

Thursday, September 12, 2013

  Actual Average Record
Temperature  
Mean Temperature 72 °F -  
Max Temperature 95 °F 85 °F - ()
Min Temperature 50 °F 48 °F - ()
Cooling Degree Days 8    
Growing Degree Days 22 (Base 50)    
Moisture  
Dew Point 7 °F    
Average Humidity 8    
Maximum Humidity 17    
Minimum Humidity 4    
Precipitation  
Precipitation 0.00 in 0.02 in - ()
Sea Level Pressure  
Sea Level Pressure 29.99 in    
Wind  
Wind Speed 5 mph ()    
Max Wind Speed 14 mph    
Max Gust Speed -    
Visibility 7.8 miles    
Events      
T = Trace of Precipitation, MM = Missing Value Source: Averaged Metar Reports

Daily Weather History Graph

Daily Weather History Graph

Search for Another Location

Airport or City:

Trip Planner

Search our weather history database for the weather conditions in past years. The results will help you decide how hot, cold, wet, or windy it might be!

Date:

Astronomy

Sep. 12, 2013 Rise Set
Actual Time 7:02 AM +0430 7:32 PM +0430
Civil Twilight 6:37 AM +0430 7:57 PM +0430
Nautical Twilight 6:07 AM +0430 8:27 PM +0430
Astronomical Twilight 5:37 AM +0430 8:57 PM +0430
Moon 1:50 PM +0430 (9/12) 12:21 AM +0430 (9/13)
Length of Visible Light 13h 20m
Length of Day
12h 30m
Waxing Crescent, 46% of the Moon is Illuminated
Sep 12
Waxing Crescent
Sep 12
First Quarter
Sep 19
Full
Sep 27
Last Quarter
Oct 5
New

Hourly Weather History & Observations

Time (+0430) Temp. Dew Point Humidity Pressure Visibility Wind Dir Wind Speed Gust Speed Precip Events Conditions
12:30 AM 64.4 °F 10.4 °F 12% 30.01 in - West 4.6 mph - N/A   Clear
1:20 AM 64.4 °F 8.6 °F 11% 30.01 in - West 6.9 mph - N/A   Clear
1:30 AM 64.4 °F 8.6 °F 11% 30.01 in - West 6.9 mph - N/A   Clear
2:20 AM 59.0 °F -0.4 °F 9% 30.01 in - East 9.2 mph - N/A   Clear
2:30 AM 59.0 °F -0.4 °F 9% 30.01 in - East 9.2 mph - N/A   Clear
3:30 AM 57.2 °F 5.0 °F 12% 30.01 in - Calm Calm - N/A   Clear
4:30 AM 53 °F -1 °F 4% 29.76 in 6 mi Calm Calm - -  
4:30 AM 53.6 °F -0.4 °F 11% 30.01 in - Calm Calm - N/A   Clear
5:30 AM 53.6 °F 3.2 °F 13% 30.01 in - Calm Calm - N/A   Clear
6:30 AM 50.0 °F 3.2 °F 15% 30.01 in - Calm Calm - N/A   Clear
7:30 AM 50.0 °F 6.8 °F 17% 30.01 in - Calm Calm - N/A   Clear
8:00 AM 53.6 °F 1.4 °F 12% 30.01 in - Calm Calm - N/A   Clear
8:20 AM 60.8 °F -0.4 °F 8% 30.04 in - Calm Calm - N/A   Clear
9:00 AM 64.4 °F 1.4 °F 8% 30.04 in - Calm Calm - N/A   Clear
9:20 AM 68.0 °F 3.2 °F 8% 30.04 in - Calm Calm - N/A   Clear
9:30 AM 68.0 °F 3.2 °F 8% 30.04 in - Calm Calm - N/A   Clear
10:30 AM 75 °F 6 °F 4% 29.80 in 6 mi East 4.5 mph - -  
10:30 AM 75.2 °F 6.8 °F 7% 30.04 in - East 4.6 mph - N/A   Clear
11:00 AM 78.8 °F 6.8 °F 6% 30.04 in - East 4.6 mph - N/A   Clear
11:20 AM 80.6 °F 8.6 °F 6% 30.04 in - SW 4.6 mph - N/A   Clear
11:30 AM 80.6 °F 8.6 °F 6% 30.04 in - SW 4.6 mph - N/A   Clear
12:20 PM 86.0 °F 10.4 °F 6% 30.04 in - WNW 4.6 mph - N/A   Clear
12:30 PM 86.0 °F 10.4 °F 6% 30.04 in - WNW 4.6 mph - N/A   Clear
1:00 PM 87.8 °F 12.2 °F 6% 30.04 in - South 4.6 mph - N/A   Clear
1:30 PM 89.6 °F 8.6 °F 5% 30.01 in - NNE 4.6 mph - N/A   Clear
2:00 PM 91.4 °F 10.4 °F 5% 30.01 in - ESE 6.9 mph - N/A   Clear
2:20 PM 93.2 °F 12.2 °F 5% 30.01 in - SSE 4.6 mph - N/A   Clear
2:30 PM 93.2 °F 12.2 °F 5% 30.01 in - SSE 4.6 mph - N/A   Clear
3:00 PM 93.2 °F 6.8 °F 4% 29.98 in - East 4.6 mph - N/A   Clear
3:20 PM 93.2 °F 8.6 °F 4% 29.98 in - SSW 13.8 mph - N/A   Clear
3:30 PM 93.2 °F 8.6 °F 4% 29.98 in - SSW 13.8 mph - N/A   Clear
4:00 PM 95.0 °F -5.8 °F 4% 29.98 in - SSW 11.5 mph - N/A   Clear
4:20 PM 93.2 °F 3.2 °F 4% 29.98 in - South 11.5 mph - N/A   Clear
4:30 PM 94 °F 3 °F 4% 29.73 in 12 mi South 11.2 mph - -  
4:30 PM 93.2 °F 3.2 °F 4% 29.98 in - South 11.5 mph - N/A   Clear
5:00 PM 93.2 °F -5.8 °F 4% 29.98 in - SSW 9.2 mph - N/A   Clear
5:20 PM 93.2 °F -9.4 °F 4% 29.98 in - SW 9.2 mph - N/A   Clear
5:30 PM 93.2 °F -9.4 °F 4% 29.98 in - SW 9.2 mph - N/A   Clear
6:00 PM 91.4 °F -9.4 °F 4% 29.98 in - South 4.6 mph - N/A   Clear
6:20 PM 91.4 °F -0.4 °F 4% 29.98 in - WSW 6.9 mph - N/A   Clear
6:30 PM 91.4 °F -0.4 °F 4% 29.98 in - WSW 6.9 mph - N/A   Clear
7:00 PM 89.6 °F 5.0 °F 4% 29.98 in - SW 6.9 mph - N/A   Clear
7:20 PM 87.8 °F 6.8 °F 5% 29.98 in - SSW 6.9 mph - N/A   Clear
7:30 PM 87.8 °F 6.8 °F 5% 29.98 in - SSW 6.9 mph - N/A   Clear
8:20 PM 80.6 °F 21.2 °F 11% 30.01 in - WNW 11.5 mph - N/A   Clear
8:30 PM 80.6 °F 21.2 °F 11% 30.01 in - WNW 11.5 mph - N/A   Clear
9:20 PM 77.0 °F 17.6 °F 11% 30.04 in - WNW 11.5 mph - N/A   Clear
9:30 PM 77.0 °F 17.6 °F 11% 30.04 in - WNW 11.5 mph - N/A   Clear
10:20 PM 71.6 °F 23.0 °F 16% 30.06 in - West 9.2 mph - N/A   Clear
10:30 PM 72 °F 22 °F 7% 29.80 in 7 mi West 8.9 mph - -  
10:30 PM 71.6 °F 23.0 °F 16% 30.06 in - West 9.2 mph - N/A   Clear
11:20 PM 73.4 °F 17.6 °F 12% 30.06 in - WNW 6.9 mph - N/A   Clear
11:30 PM 73.4 °F 17.6 °F 12% 30.06 in - WNW 6.9 mph - N/A   Clear